Flag for U.S.A. Weather past 2 weeks in Fort Collins, Colorado, U.S.A.

Now
63 °F

Mostly cloudy.


Feels Like: 63 °F
Forecast: 52 / 76 °F
Wind: 3 mph from Northeast

Location: Fort Collins-Loveland Municipal Airport

Current Time: Jun 3, 2015 at 9:55:51 AM

Latest Report: Jun 3, 2015 at 9:35 AM


Visibility: 10 mi

Pressure: 30.10 "Hg

Humidity: 68%

Dew point: 52 °F

Location of Fort CollinsLocation

Historic Weather in Fort Collins — Graph

°F

Fort Collins temperature yesterday

Maximum temperature yesterday: 88 °F (at 4:15 PM)
Minimum temperature yesterday: 52 °F (at 5:35 AM)
Average temperature yesterday: 69 °F

Past Weeks' High & Low Weather Summary

 TemperatureHumidityPressure
High88 °F (Jun 2, 4:15 PM)100% (May 19, 9:35 PM)30.35 "Hg (May 19, 9:35 PM)
Low34 °F (May 20, 4:15 AM)17% (Jun 2, 3:15 PM)29.82 "Hg (Jun 2, 5:35 PM)
Average55 °F73%30.07 "Hg
* Reported May 19 8:15 AM — Jun 3 8:55 AM, Fort Collins, Weather by CustomWeather, © 2015

Note: Actual official high and low records may vary slightly from our data, if they occured in-between our weather recording intervals... More about our weather records

Advertising

Fort Collins weather history for previous 24 hours

 ConditionsComfort  
Time TempWeatherWind HumidityBarometerVisibility
8:55 AM
Wed, Jun 3
61 °FOvercast.No wind68%30.11 "Hg10 mi
8:35 AM61 °FOvercast.5 mph63%30.11 "Hg10 mi
8:15 AM61 °FOvercast.7 mph68%30.10 "Hg10 mi
7:55 AM61 °FOvercast.3 mph63%30.10 "Hg10 mi
7:35 AM59 °FOvercast.6 mph68%30.10 "Hg10 mi
7:15 AM59 °FOvercast.6 mph68%30.09 "Hg10 mi
6:55 AM57 °FOvercast.7 mph72%30.08 "Hg10 mi
6:35 AM57 °FOvercast.7 mph72%30.07 "Hg10 mi
6:15 AM55 °FPassing clouds.6 mph72%30.06 "Hg10 mi
5:55 AM54 °FClear.7 mph77%30.05 "Hg10 mi
5:35 AM55 °FClear.9 mph67%30.03 "Hg10 mi
5:15 AM55 °FClear.12 mph67%30.02 "Hg10 mi
4:55 AM55 °FClear.14 mph67%30.01 "Hg10 mi
4:35 AM57 °FClear.14 mph63%29.99 "Hg10 mi
4:15 AM57 °FClear.14 mph55%29.98 "Hg10 mi
3:55 AM55 °FClear.12 mph63%29.97 "Hg10 mi
3:35 AM57 °FClear.8 mph59%29.96 "Hg10 mi
3:15 AM55 °FClear.8 mph67%29.95 "Hg10 mi
2:55 AM55 °FClear.3 mph67%29.93 "Hg10 mi
2:35 AM57 °FClear.5 mph72%29.93 "Hg10 mi
2:15 AM55 °FClear.7 mph72%29.93 "Hg10 mi
1:55 AM57 °FClear.7 mph67%29.93 "Hg10 mi
1:35 AM57 °FClear.No wind67%29.93 "Hg10 mi
1:15 AM55 °FClear.No wind72%29.93 "Hg10 mi
12:55 AM61 °FClear.6 mph68%29.92 "Hg10 mi
12:35 AM57 °FClear.3 mph77%29.92 "Hg10 mi
12:15 AM59 °FClear.6 mph72%29.92 "Hg10 mi
11:55 PM
Tue, Jun 2
63 °FClear.7 mph64%29.92 "Hg10 mi
11:35 PM63 °FClear.8 mph59%29.92 "Hg10 mi
11:15 PM64 °FClear.5 mph56%29.93 "Hg10 mi
10:55 PM66 °FClear.6 mph52%29.93 "Hg10 mi
10:35 PM70 °FClear.9 mph40%29.92 "Hg10 mi
10:15 PM70 °FClear.9 mph38%29.92 "Hg10 mi
9:35 PM72 °FClear.7 mph36%29.89 "Hg10 mi
9:15 PM72 °FSunny.7 mph38%29.88 "Hg10 mi
8:55 PM73 °FSunny.7 mph33%29.87 "Hg10 mi
8:35 PM75 °FSunny.5 mph34%29.86 "Hg10 mi
8:15 PM77 °FSunny.No wind34%29.85 "Hg10 mi
7:55 PM77 °FSunny.No wind36%29.84 "Hg10 mi
7:35 PM81 °FSunny.5 mph32%29.83 "Hg10 mi
7:15 PM81 °FSunny.8 mph37%29.83 "Hg10 mi
6:55 PM82 °FSunny.6 mph35%29.82 "Hg10 mi
6:35 PM82 °FSunny.7 mph26%29.82 "Hg10 mi
6:15 PM84 °FSunny.7 mph27%29.82 "Hg10 mi
5:55 PM84 °FSunny.8 mph27%29.82 "Hg10 mi
5:35 PM84 °FSunny.8 mph23%29.82 "Hg10 mi
5:15 PM86 °FSunny.9 mph22%29.83 "Hg10 mi
4:55 PM86 °FSunny.13 mph22%29.83 "Hg10 mi
4:35 PM86 °FSunny.10 mph22%29.84 "Hg10 mi
4:15 PM88 °FSunny.12 mph17%29.84 "Hg10 mi
3:35 PM86 °FSunny.15 mph17%29.85 "Hg10 mi
3:15 PM86 °FSunny.13 mph17%29.86 "Hg10 mi
2:55 PM86 °FSunny.13 mph18%29.87 "Hg10 mi
2:35 PM86 °FSunny.14 mph18%29.87 "Hg10 mi
2:15 PM86 °FSunny.13 mph18%29.88 "Hg10 mi
1:55 PM86 °FSunny.16 mph19%29.88 "Hg10 mi
1:35 PM84 °FSunny.15 mph20%29.88 "Hg10 mi
1:15 PM84 °FSunny.14 mph25%29.89 "Hg10 mi
12:55 PM84 °FSunny.8 mph29%29.91 "Hg10 mi
12:35 PM82 °FSunny.6 mph40%29.92 "Hg10 mi
12:15 PM81 °FSunny.6 mph45%29.93 "Hg10 mi
11:55 AM75 °FSunny.6 mph54%29.94 "Hg10 mi
11:35 AM73 °FSunny.6 mph57%29.95 "Hg10 mi
11:15 AM72 °FSunny.5 mph61%29.96 "Hg10 mi
10:55 AM70 °FSunny.6 mph60%29.96 "Hg10 mi
10:35 AM70 °FSunny.3 mph57%29.97 "Hg10 mi
10:15 AM66 °FSunny.No wind60%29.97 "Hg10 mi
9:55 AM64 °FSunny.3 mph68%29.98 "Hg10 mi
9:35 AM63 °FSunny.3 mph73%29.98 "Hg10 mi
9:15 AM63 °FSunny.No wind73%29.99 "Hg10 mi
Weather by CustomWeather, © 2015

See weather overviewHow to use our weather pages